Weather History for Mammoth, CA

Change the Weather History Date:

Saturday, December 28, 2013

  Actual Average Record
Temperature  
Mean Temperature 36 °F -  
Max Temperature 48 °F 36 °F 64 °F (2003)
Min Temperature 23 °F 21 °F -16 °F (2012)
Degree Days  
Heating Degree Days 30    
Moisture  
Dew Point 1 °F    
Average Humidity 29    
Maximum Humidity 59    
Minimum Humidity 12    
Precipitation  
Precipitation 0.00 in - - ()
Sea Level Pressure  
Sea Level Pressure 30.22 in    
Wind  
Wind Speed 4 mph (WNW)    
Max Wind Speed 16 mph    
Max Gust Speed 21 mph    
Visibility 10 miles    
Events      
Averages and records for this station are not official NWS values.
T = Trace of Precipitation, MM = Missing Value Source: NWS Daily Summary

Daily Weather History Graph

Daily Weather History Graph

Search for Another Location

Airport:

Trip Planner

Search our weather history database for the weather conditions in past years. The results will help you decide how hot, cold, wet, or windy it might be!

Date:

Astronomy

Dec. 28, 2013 Rise Set
Actual Time 7:09 AM PST 4:44 PM PST
Civil Twilight 6:40 AM PST 5:14 PM PST
Nautical Twilight 6:07 AM PST 5:46 PM PST
Astronomical Twilight 5:35 AM PST 6:18 PM PST
Moon 2:54 AM PST (12/28) 1:37 PM PST (12/28)
Length of Visible Light 10h 33m
Length of Day
9h 35m
Waning Crescent, 18% of the Moon is Illuminated
Dec 28
Waning Crescent
Jan 1
New
Jan 7
First Quarter
Jan 15
Full
Jan 23
Last Quarter

Hourly Weather History & Observations

Time (PST) Temp. Windchill Dew Point Humidity Pressure Visibility Wind Dir Wind Speed Gust Speed Precip Events Conditions
12:15 AM 26.6 °F - 3.2 °F 37% 30.23 in 10.0 mi Calm Calm - N/A   Clear
12:35 AM 26.6 °F 21.2 °F 1.4 °F 34% 30.22 in 10.0 mi North 4.6 mph - N/A   Clear
12:55 AM 28.4 °F - 1.4 °F 31% 30.22 in 10.0 mi Calm Calm - N/A   Clear
1:15 AM 28.4 °F 24.6 °F 1.4 °F 31% 30.21 in 10.0 mi SE 3.5 mph - N/A   Clear
1:35 AM 26.6 °F - 1.4 °F 34% 30.19 in 10.0 mi Calm Calm - N/A   Clear
1:55 AM 26.6 °F - 1.4 °F 34% 30.19 in 10.0 mi Calm Calm - N/A   Clear
2:15 AM 26.6 °F - -0.4 °F 31% 30.19 in 10.0 mi Calm Calm - N/A   Clear
2:35 AM 24.8 °F - -0.4 °F 34% 30.19 in 10.0 mi Calm Calm - N/A   Clear
2:55 AM 28.4 °F 23.3 °F -0.4 °F 29% 30.19 in 10.0 mi SSW 4.6 mph - N/A   Clear
3:15 AM 28.4 °F 22.2 °F -2.2 °F 27% 30.19 in 10.0 mi WNW 5.8 mph - N/A   Clear
3:35 AM 24.8 °F - -4.0 °F 28% 30.18 in 10.0 mi Calm Calm - N/A   Clear
3:55 AM 24.8 °F - -2.2 °F 31% 30.17 in 10.0 mi Calm Calm - N/A   Clear
4:15 AM 23.0 °F - -5.8 °F 28% 30.17 in 10.0 mi Calm Calm - N/A   Clear
4:35 AM 26.6 °F - -0.4 °F 31% 30.16 in 10.0 mi Calm Calm - N/A   Clear
4:55 AM 28.4 °F 24.6 °F -4.0 °F 25% 30.15 in 10.0 mi NNW 3.5 mph - N/A   Clear
5:15 AM 26.6 °F 20.0 °F -5.8 °F 24% 30.16 in 10.0 mi North 5.8 mph - N/A   Clear
5:35 AM 24.8 °F - -0.4 °F 34% 30.17 in 10.0 mi Calm Calm - N/A   Clear
5:55 AM 24.8 °F 20.5 °F -0.4 °F 34% 30.16 in 10.0 mi North 3.5 mph - N/A   Clear
6:15 AM 28.4 °F - -5.8 °F 23% 30.17 in 10.0 mi Calm Calm - N/A   Clear
6:35 AM 23.0 °F 18.4 °F -0.4 °F 36% 30.16 in 10.0 mi East 3.5 mph - N/A   Clear
6:55 AM 23.0 °F - -2.2 °F 33% 30.16 in 10.0 mi Calm Calm - N/A   Clear
7:15 AM 24.8 °F 20.5 °F -2.2 °F 31% 30.17 in 10.0 mi SSE 3.5 mph - N/A   Clear
7:35 AM 24.8 °F - -2.2 °F 31% 30.17 in 10.0 mi Calm Calm - N/A   Clear
7:55 AM 30.2 °F 23.4 °F -2.2 °F 25% 30.18 in 10.0 mi SE 6.9 mph - N/A   Clear
8:15 AM 32.0 °F - -0.4 °F 25% 30.19 in 10.0 mi Calm Calm - N/A   Clear
8:35 AM 35.6 °F - -0.4 °F 22% 30.19 in 10.0 mi Calm Calm - N/A   Clear
9:35 AM 42.8 °F 35.8 °F -4.0 °F 14% 30.23 in 10.0 mi West 13.8 mph - N/A   Clear
9:55 AM 44.6 °F 37.4 °F -2.2 °F 14% 30.23 in 10.0 mi WNW 16.1 mph 20.7 mph N/A   Clear
10:15 AM 44.6 °F 39.2 °F -2.2 °F 14% 30.23 in 10.0 mi NW 10.4 mph - N/A   Clear
10:35 AM 46.4 °F 42.4 °F -2.2 °F 13% 30.24 in 10.0 mi NW 8.1 mph - N/A   Clear
10:55 AM 44.6 °F 38.8 °F -2.2 °F 14% 30.25 in 10.0 mi NW 11.5 mph 16.1 mph N/A   Clear
11:15 AM 46.4 °F 42.4 °F -2.2 °F 13% 30.25 in 10.0 mi WNW 8.1 mph - N/A   Clear
11:35 AM 46.4 °F 42.9 °F -2.2 °F 13% 30.24 in 10.0 mi NW 6.9 mph 17.3 mph N/A   Clear
11:55 AM 46.4 °F 41.5 °F -2.2 °F 13% 30.23 in 10.0 mi WNW 10.4 mph 19.6 mph N/A   Clear
12:15 PM 48.2 °F - -2.2 °F 12% 30.21 in 10.0 mi NW 9.2 mph - N/A   Clear
12:35 PM 48.2 °F - -2.2 °F 12% 30.21 in 10.0 mi WNW 6.9 mph 18.4 mph N/A   Clear
12:55 PM 48.2 °F - -0.4 °F 13% 30.20 in 10.0 mi West 10.4 mph 18.4 mph N/A   Clear
1:15 PM 46.4 °F 43.5 °F -0.4 °F 14% 30.20 in 10.0 mi West 5.8 mph - N/A   Clear
1:35 PM 46.4 °F 41.9 °F -0.4 °F 14% 30.20 in 10.0 mi West 9.2 mph - N/A   Clear
1:55 PM 46.4 °F 42.4 °F -0.4 °F 14% 30.20 in 10.0 mi West 8.1 mph - N/A   Clear
2:15 PM 46.4 °F 41.9 °F -0.4 °F 14% 30.19 in 10.0 mi West 9.2 mph - N/A   Clear
2:35 PM 46.4 °F 41.9 °F -0.4 °F 14% 30.20 in 10.0 mi WNW 9.2 mph - N/A   Clear
2:55 PM 46.4 °F 41.9 °F -0.4 °F 14% 30.20 in 10.0 mi West 9.2 mph - N/A   Clear
3:15 PM 46.4 °F 42.4 °F -0.4 °F 14% 30.20 in 10.0 mi West 8.1 mph - N/A   Clear
3:35 PM 44.6 °F 41.4 °F -0.4 °F 15% 30.20 in 10.0 mi West 5.8 mph - N/A   Clear
3:55 PM 41.0 °F 35.2 °F -0.4 °F 18% 30.21 in 10.0 mi WSW 9.2 mph - N/A   Clear
4:15 PM 39.2 °F 33.0 °F -0.4 °F 19% 30.21 in 10.0 mi West 9.2 mph - N/A   Clear
4:35 PM 37.4 °F 32.8 °F -0.4 °F 20% 30.21 in 10.0 mi West 5.8 mph - N/A   Clear
4:55 PM 35.6 °F 29.9 °F -0.4 °F 22% 30.21 in 10.0 mi WSW 6.9 mph - N/A   Clear
5:15 PM 30.2 °F - -2.2 °F 25% 30.22 in 10.0 mi Calm Calm - N/A   Clear
5:35 PM 30.2 °F 23.4 °F 1.4 °F 29% 30.23 in 10.0 mi West 6.9 mph - N/A   Clear
5:55 PM 28.4 °F 22.2 °F 1.4 °F 31% 30.23 in 10.0 mi WNW 5.8 mph - N/A   Clear
6:15 PM 28.4 °F 22.2 °F 3.2 °F 34% 30.23 in 10.0 mi NW 5.8 mph - N/A   Clear
6:35 PM 28.4 °F 19.7 °F 3.2 °F 34% 30.24 in 10.0 mi West 9.2 mph - N/A   Clear
6:55 PM 28.4 °F 20.4 °F 3.2 °F 34% 30.25 in 10.0 mi West 8.1 mph - N/A   Clear
7:15 PM 28.4 °F 19.1 °F 3.2 °F 34% 30.26 in 10.0 mi WNW 10.4 mph - N/A   Clear
7:35 PM 28.4 °F 18.0 °F 3.2 °F 34% 30.26 in 10.0 mi West 12.7 mph - N/A   Clear
7:55 PM 28.4 °F 17.5 °F 5.0 °F 37% 30.27 in 10.0 mi WNW 13.8 mph - N/A   Clear
8:15 PM 30.2 °F 20.2 °F 6.8 °F 37% 30.28 in 10.0 mi WNW 12.7 mph - N/A   Clear
8:35 PM 26.6 °F 14.3 °F 6.8 °F 43% 30.28 in 10.0 mi West 16.1 mph - N/A   Clear
8:55 PM 26.6 °F 16.8 °F 6.8 °F 43% 30.29 in 10.0 mi West 10.4 mph - N/A   Clear
9:15 PM 24.8 °F 16.1 °F 8.6 °F 50% 30.30 in 10.0 mi West 8.1 mph - N/A   Clear
9:35 PM 26.6 °F 17.5 °F 8.6 °F 47% 30.30 in 10.0 mi West 9.2 mph - N/A   Clear
9:55 PM 26.6 °F 17.5 °F 10.4 °F 51% 30.31 in 10.0 mi West 9.2 mph - N/A   Clear
10:15 PM 26.6 °F 18.2 °F 10.4 °F 51% 30.31 in 10.0 mi West 8.1 mph - N/A   Clear
10:35 PM 24.8 °F 15.3 °F 10.4 °F 54% 30.31 in 10.0 mi West 9.2 mph - N/A   Clear
10:55 PM 23.0 °F 15.8 °F 10.4 °F 59% 30.31 in 10.0 mi NW 5.8 mph - N/A   Clear
11:15 PM 23.0 °F 14.7 °F 8.6 °F 54% 30.31 in 10.0 mi NW 6.9 mph - N/A   Clear
11:35 PM 24.8 °F 15.3 °F 8.6 °F 50% 30.31 in 10.0 mi West 9.2 mph - N/A   Clear
11:55 PM 24.8 °F 16.9 °F 8.6 °F 50% 30.31 in 10.0 mi WNW 6.9 mph - N/A   Clear